Skip Page Navigation
NASA JPL Caltech
NASA Logo - Jet Propulsion Laboratory + View the NASA Portal
+ Center for Near-Earth Object Studies
JPL Home Earth Solar System Stars & Galaxies Technology
JPL Solar System Dynamics
BODIES ORBITS EPHEMERIDES TOOLS PHYSICAL DATA DISCOVERY FAQ SITE MAP
JPL Small-Body Database Browser
Search: [ help ]  
39061 (2000 UX108)
Classification: Main-belt Asteroid          SPK-ID: 2039061
Ephemeris | Orbit Diagram | Orbital Elements | Mission Design | Physical Parameters | Discovery Circumstances ]

[ show orbit diagram ]
Orbital Elements at Epoch 2459000.5 (2020-May-31.0) TDB
Reference: JPL 24 (heliocentric ecliptic J2000)
 Element Value Uncertainty (1-sigma)   Units 
e .08682445142925857 3.8596e-08  
a 2.240356237533154 9.7476e-09 au
q 2.04583853620322 8.8529e-08 au
i 8.40052255224991 4.7459e-06 deg
node 100.4956079112164 2.8077e-05 deg
peri 86.19493525139744 3.9558e-05 deg
M 168.2180551015159 2.8359e-05 deg
tp 2458428.173105411894
(2018-Nov-05.67310541)
9.525e-05 TDB
period 1224.825016121956
3.35
7.9936e-06
2.189e-08
d
yr
n .2939195356572916 1.9182e-09 deg/d
Q 2.434873938863088 1.0594e-08 au
  Orbit Determination Parameters
   # obs. used (total)      1083  
   data-arc span      10296 days (28.19 yr)  
   first obs. used      1992-05-24  
   last obs. used      2020-08-01  
   planetary ephem.      DE431  
   SB-pert. ephem.      SB431-N16  
   condition code      0  
   norm. resid. RMS      .51736  
   source      ORB  
   producer      Otto Matic  
   solution date      2020-Aug-25 03:31:51  

Additional Information
 Earth MOID = 1.06751 au 
 Jupiter MOID = 2.55688 au 
 T_jup = 3.616 
[ show covariance matrix ]

Ephemeris | Orbit Diagram | Orbital Elements | Mission Design | Physical Parameters | Discovery Circumstances ]

Physical Parameter Table
Parameter Symbol Value Units Sigma Reference Notes
absolute magnitude H 15.1   n/a MPO337575  
diameter diameter 2.667 km 0.334 urn:nasa:pds:neowise_diameters_albedos::2.0[mainbelt] (http://adsabs.harvard.edu/abs/2012ApJ...759L...8M)  
geometric albedo albedo 0.272   0.108 urn:nasa:pds:neowise_diameters_albedos::2.0[mainbelt] (http://adsabs.harvard.edu/abs/2012ApJ...759L...8M)  

39061 (2000 UX108)          Discovered 2000-Oct-31 by LINEAR at Socorro
Reference: 20020328/Numbers.arcLast Updated: 2004-04-19

Alternate Designations
 2000 UX108 = 1992 KU = 1998 AG8 
Ephemeris | Orbit Diagram | Orbital Elements | Mission Design | Physical Parameters | Discovery Circumstances ]
ABOUT SSD CREDITS/AWARDS PRIVACY/COPYRIGHT GLOSSARY LINKS
FirstGov 2020-Sep-27 17:21 UT
(server date/time)  
NASA Home Page
Site Manager:   Ryan S. Park
Webmaster  Alan B. Chamberlin